When you browse on this site, cookies collect data to enhance your experience and personalize the content and advertising you see.
Visit our Privacy Policy to learn more. By continuing to use the site, you agree to this use of cookies and data.
  • In Netherlands
  • List of Countries
  • For 7 days
  • Water Temperature
  • Weather Map
  • Weather Widgets
  • user-avatar
    Login

    Hourly Weather Cobija

    Today, 8 December, Sunday

    Time Temperature Precipitation Wind Pressure Humidity
    00:00 +25°C° 0.1 mm 1 mps 736 mmHg 86%
    01:00 +24°C° 0 mm 1 mps 736 mmHg 89%
    02:00 +24°C° 0.1 mm 1 mps 736 mmHg 91%
    03:00 +24°C° 0.1 mm 1 mps 735 mmHg 93%
    04:00 +23°C° 0.1 mm 1 mps 735 mmHg 95%
    05:00 +24°C° 0 mm 1 mps 736 mmHg 92%
    06:00 +25°C° 0 mm 1 mps 736 mmHg 88%
    07:00 +26°C° 0 mm 1 mps 737 mmHg 85%
    08:00 +29°C° 0 mm 1 mps 737 mmHg 72%
    09:00 +32°C° 0 mm 2 mps 737 mmHg 60%
    10:00 +35°C° 0 mm 2 mps 737 mmHg 47%
    11:00 +36°C° 0 mm 2 mps 736 mmHg 44%
    12:00 +37°C° 0 mm 2 mps 735 mmHg 41%
    13:00 +38°C° 0 mm 2 mps 734 mmHg 38%
    14:00 +38°C° 0 mm 2 mps 734 mmHg 40%
    15:00 +36°C° 0 mm 1 mps 733 mmHg 43%
    16:00 +35°C° 0 mm 1 mps 732 mmHg 46%
    17:00 +34°C° 0 mm 1 mps 733 mmHg 51%
    18:00 +32°C° 0 mm 1 mps 733 mmHg 57%
    19:00 +30°C° 0 mm 1 mps 734 mmHg 62%
    20:00 +29°C° 0 mm 1 mps 734 mmHg 65%
    21:00 +29°C° 0 mm 1 mps 735 mmHg 69%
    22:00 +28°C° 0 mm 1 mps 735 mmHg 72%
    23:00 +27°C° 0 mm 1 mps 735 mmHg 75%

    Tomorrow, 9 December, Monday

    Time Temperature Precipitation Wind Pressure Humidity
    00:00 +27°C° 0 mm 1 mps 734 mmHg 78%
    01:00 +26°C° 0 mm 1 mps 734 mmHg 81%
    02:00 +25°C° 0 mm 1 mps 734 mmHg 85%
    03:00 +25°C° 0 mm 1 mps 734 mmHg 88%
    04:00 +25°C° 0 mm 1 mps 735 mmHg 91%
    05:00 +26°C° 0 mm 1 mps 735 mmHg 87%
    06:00 +27°C° 0 mm 1 mps 736 mmHg 82%
    07:00 +28°C° 0 mm 1 mps 736 mmHg 77%
    08:00 +29°C° 1.2 mm 1 mps 736 mmHg 81%
    09:00 +30°C° 1.2 mm 1 mps 736 mmHg 84%
    10:00 +31°C° 1.2 mm 1 mps 736 mmHg 87%
    11:00 +31°C° 1.4 mm 1 mps 736 mmHg 80%
    12:00 +32°C° 1.4 mm 2 mps 735 mmHg 74%
    13:00 +32°C° 1.4 mm 2 mps 734 mmHg 68%
    14:00 +33°C° 0 mm 1 mps 733 mmHg 60%
    15:00 +35°C° 0 mm 1 mps 733 mmHg 53%
    16:00 +36°C° 0 mm 1 mps 732 mmHg 46%
    17:00 +33°C° 0 mm 1 mps 732 mmHg 54%
    18:00 +31°C° 0 mm 1 mps 733 mmHg 62%
    19:00 +29°C° 0 mm 1 mps 733 mmHg 70%
    20:00 +28°C° 0 mm 1 mps 734 mmHg 73%
    21:00 +28°C° 0 mm 1 mps 734 mmHg 75%
    22:00 +27°C° 0 mm 1 mps 735 mmHg 78%
    23:00 +26°C° 0.2 mm 1 mps 735 mmHg 82%

    Day after tomorrow, 10 December, Tuesday

    Time Temperature Precipitation Wind Pressure Humidity
    00:00 +26°C° 0.2 mm 1 mps 734 mmHg 85%
    01:00 +25°C° 0.2 mm 1 mps 734 mmHg 89%
    02:00 +25°C° 0.9 mm 1 mps 734 mmHg 92%
    03:00 +24°C° 0.9 mm 1 mps 735 mmHg 95%
    04:00 +24°C° 0.9 mm 1 mps 735 mmHg 98%
    05:00 +25°C° 0.9 mm 1 mps 735 mmHg 97%
    06:00 +25°C° 0.9 mm 1 mps 736 mmHg 96%
    07:00 +26°C° 0.9 mm 1 mps 737 mmHg 96%
    08:00 +27°C° 0.1 mm 1 mps 737 mmHg 91%
    09:00 +28°C° 0.1 mm 1 mps 737 mmHg 85%
    10:00 +29°C° 0.1 mm 1 mps 737 mmHg 80%
    11:00 +30°C° 1.3 mm 1 mps 736 mmHg 81%
    12:00 +30°C° 1.3 mm 1 mps 736 mmHg 82%
    13:00 +31°C° 1.3 mm 1 mps 735 mmHg 82%
    14:00 +30°C° 0.9 mm 1 mps 734 mmHg 84%
    15:00 +30°C° 0.9 mm 1 mps 734 mmHg 85%
    16:00 +29°C° 0.9 mm 1 mps 734 mmHg 87%
    17:00 +28°C° 1.4 mm 1 mps 734 mmHg 90%
    18:00 +27°C° 1.4 mm 1 mps 735 mmHg 94%
    19:00 +26°C° 1.4 mm 1 mps 735 mmHg 97%
    20:00 +25°C° 1.1 mm 1 mps 736 mmHg 97%
    21:00 +23°C° 1.1 mm 0 mps 736 mmHg 98%
    22:00 +23°C° 1.1 mm 0 mps 737 mmHg 98%
    23:00 +23°C° 0.1 mm 0 mps 736 mmHg 98%

    11 December, Wednesday

    Time Temperature Precipitation Wind Pressure Humidity
    00:00 +23°C° 0.1 mm 0 mps 736 mmHg 98%
    01:00 +22°C° 0.1 mm 0 mps 735 mmHg 98%
    02:00 +22°C° 0.1 mm 0 mps 735 mmHg 99%
    03:00 +22°C° 0.1 mm 0 mps 735 mmHg 99%
    04:00 +22°C° 0.1 mm 0 mps 735 mmHg 99%
    05:00 +23°C° 0 mm 0 mps 736 mmHg 98%
    06:00 +23°C° 0 mm 0 mps 736 mmHg 98%
    07:00 +23°C° 0 mm 0 mps 737 mmHg 97%
    08:00 +26°C° 0.6 mm 1 mps 737 mmHg 96%
    09:00 +27°C° 0.6 mm 1 mps 737 mmHg 95%
    10:00 +27°C° 0.6 mm 1 mps 737 mmHg 94%
    11:00 +27°C° 1.8 mm 2 mps 737 mmHg 94%
    12:00 +28°C° 1.8 mm 2 mps 736 mmHg 93%
    13:00 +28°C° 1.8 mm 2 mps 735 mmHg 93%
    14:00 +29°C° 0.4 mm 2 mps 735 mmHg 87%
    15:00 +29°C° 0.4 mm 2 mps 734 mmHg 80%
    16:00 +30°C° 0.4 mm 2 mps 733 mmHg 73%
    17:00 +29°C° 0 mm 1 mps 734 mmHg 78%
    18:00 +27°C° 0 mm 1 mps 734 mmHg 83%
    19:00 +24°C° 0 mm 0 mps 734 mmHg 89%
    20:00 +24°C° 0 mm 0 mps 735 mmHg 89%
    21:00 +24°C° 0 mm 0 mps 735 mmHg 89%
    22:00 +23°C° 0 mm 0 mps 736 mmHg 89%
    23:00 +23°C° 0 mm 0 mps 735 mmHg 90%

    12 December, Thursday

    Time Temperature Precipitation Wind Pressure Humidity
    00:00 +23°C° 0 mm 0 mps 735 mmHg 90%
    01:00 +23°C° 0 mm 0 mps 734 mmHg 91%
    02:00 +23°C° 0 mm 0 mps 734 mmHg 91%
    03:00 +22°C° 0 mm 0 mps 734 mmHg 92%
    04:00 +22°C° 0 mm 0 mps 734 mmHg 92%
    05:00 +23°C° 0 mm 0 mps 734 mmHg 88%
    06:00 +26°C° 0 mm 1 mps 735 mmHg 85%
    07:00 +27°C° 0 mm 1 mps 736 mmHg 81%
    08:00 +29°C° 0.1 mm 1 mps 736 mmHg 73%
    09:00 +31°C° 0.1 mm 1 mps 736 mmHg 65%
    10:00 +34°C° 0.1 mm 2 mps 736 mmHg 57%
    11:00 +32°C° 1.4 mm 2 mps 736 mmHg 67%
    12:00 +31°C° 1.4 mm 2 mps 735 mmHg 77%
    13:00 +30°C° 1.4 mm 2 mps 734 mmHg 87%
    14:00 +29°C° 1.9 mm 2 mps 734 mmHg 89%
    15:00 +28°C° 1.9 mm 2 mps 733 mmHg 92%
    16:00 +27°C° 1.9 mm 2 mps 733 mmHg 95%
    17:00 +26°C° 0.2 mm 1 mps 734 mmHg 96%
    18:00 +26°C° 0.2 mm 1 mps 734 mmHg 96%
    19:00 +25°C° 0.2 mm 1 mps 735 mmHg 97%
    20:00 +25°C° 0 mm 1 mps 735 mmHg 97%
    21:00 +25°C° 0 mm 1 mps 736 mmHg 98%
    22:00 +25°C° 0 mm 1 mps 736 mmHg 98%
    23:00 +25°C° 0.1 mm 1 mps 736 mmHg 98%

    13 December, Friday

    Time Temperature Precipitation Wind Pressure Humidity
    00:00 +25°C° 0.1 mm 1 mps 735 mmHg 98%
    01:00 +24°C° 0.1 mm 1 mps 735 mmHg 98%
    02:00 +24°C° 0.4 mm 1 mps 735 mmHg 98%
    03:00 +24°C° 0.4 mm 1 mps 735 mmHg 98%
    04:00 +24°C° 0.4 mm 1 mps 735 mmHg 98%
    05:00 +24°C° 0.6 mm 1 mps 736 mmHg 98%
    06:00 +24°C° 0.6 mm 1 mps 736 mmHg 98%
    07:00 +24°C° 0.6 mm 1 mps 737 mmHg 98%
    08:00 +24°C° 0.9 mm 1 mps 737 mmHg 98%
    09:00 +24°C° 0.9 mm 1 mps 738 mmHg 98%
    10:00 +24°C° 0.9 mm 1 mps 738 mmHg 98%
    11:00 +24°C° 0.5 mm 1 mps 737 mmHg 97%
    12:00 +25°C° 0.5 mm 1 mps 737 mmHg 97%
    13:00 +25°C° 0.5 mm 1 mps 736 mmHg 96%
    14:00 +26°C° 0 mm 1 mps 735 mmHg 89%
    15:00 +25°C° 0 mm 0 mps 735 mmHg 82%
    16:00 +26°C° 0 mm 0 mps 734 mmHg 76%
    17:00 +25°C° 0 mm 0 mps 734 mmHg 80%
    18:00 +24°C° 0 mm 0 mps 735 mmHg 85%
    19:00 +23°C° 0 mm 0 mps 735 mmHg 90%
    20:00 +22°C° 0 mm 0 mps 735 mmHg 91%
    21:00 +22°C° 0 mm 0 mps 736 mmHg 92%
    22:00 +22°C° 0 mm 0 mps 736 mmHg 93%
    23:00 +22°C° 0 mm 0 mps 736 mmHg 92%
    Show more